星链-11489 (STARLINK-11489)

导读 | 星芒AI

STARLINK-11489 是 SpaceX Starlink 卫星互联网项目中的一颗低轨卫星,属于第5批发射的星链卫星群。该卫星于2020年5月23日由猎鹰9号火箭从肯尼迪航天中心发射升空,运行在约550公里高的近地轨道,旨在为全球提供高速互联网服务。作为星链计划的一部分,STARLINK-11489 与其他数千颗卫星共同构建覆盖全球的通信网络,提升偏远地区的网络接入能力,并支持多种应用场景,如远程教育、医疗和应急通信等。

基本信息
目录编号:
62271
目录名称:
STARLINK-11489
国际标识:
2024-237E
轨道中心:
EARTH
卫星名称:
星链-11489
卫星全名:
星链-11489 (STARLINK-11489)
卫星状态:
在轨 (已飞行378 天)
发射日期:
2024-12-08 UTC
国别 :
美国 (US)
星等 :
--
轨道信息
数据来源 国际轨道数据
星历时间: 2025-12-21T20:44:55+0800
8小时前
查看轨道信息
半长轴: 6734.077km
偏心率: 0.0005005
轨道倾角: 43.001°
近地点辐角 302.501°
升交点赤经 168.291°
平近点角 57.537°
近地点: 352.569km
远地点: 359.311km
周期: 91.659分钟
每日圈数: 15.710343
详细信息
固有亮度:
5
最大亮度:
2.5
卫星平台:
Starlink V1.0
覆盖范围:
全球
运营商:
太空探索技术公司
运营商所在国:
美国
制造商(研发单位):
太空探索技术公司
制造商所在国:
美国
使用方式:
暂无
卫星简介
Starlink 计划是 SpaceX 推出的全球卫星互联网项目,通过发射低轨道卫星,为全球尤其是偏远地区提供高速、低延迟的互联网服务。自 2019 年起,Starlink 已部署数千颗卫星,旨在缩小全球数字鸿沟,推动互联网普及。该项目还为军事、航空等行业提供通信支持,带来广泛经济效益。
2D轨道图
3D轨道图
轨道高度分析图
轨道倾角分析图
轨道综合分析图
查看轨道综合分析图